Weather in Bolon

Russia / Khabarovsk Krai     49°53′54″N   136°08′11″E
temp.,
°C
wind,
m/s
gust,
m/s
humid.,
%
clouds,
%
prec.,
mm/h
press.,
hPa
HPBL,
m
27 february, sat
sat2701:00−19ssw1299100 0.1 103227
04:00−21ssw1210099 0.1 103336
07:00−22ssw23100100 0.1 103383
10:00−20ssw2495100 0.1 1032250
13:00−16sw3687100 0.0 1030488
16:00−14sw4787100 0.1 1026530
19:00−14sw2695100 0.0 1025283
22:00−14wsw1395100 0.0 1021109
28 february, sun
sun2801:00−14sw2696100 0.3 1018239
04:00−14wsw2596100 0.7 1014233
07:00−14wsw3996100 0.1 1014381
10:00−12wsw3889100 0.1 1013393
13:00−6wsw3977100 0.0 1014637
16:00−6wsw597099 0.0 1014702
19:00−11s128447 0.0 101821
22:00−13ene239568 0.2 1021109
1 march, mon
mon101:00−16ne379378 0.0 1022185
04:00−19ene359559 0.0 1024126
07:00−21nne229719 0.0 102627
10:00−18ese129057 0.0 1027261
13:00−15s2179100 0.0 1026546
16:00−14ssw3482100 0.1 1026542
19:00−19s019134 0.0 102820
22:00−21wnw119117 0.0 102925
2 march, tue
tue201:00−23w018818 0.0 103020
04:00−25wnw018918 0.0 103020
07:00−26e119117 0.0 103219
10:00−22ese12819 0.0 1031225
13:00−18sse21730 0.0 1029436
16:00−17s227612 0.0 1029504
19:00−23ese119629 0.0 103020
22:00−23ne119216 0.0 103220
3 march, wed
wed301:00−25e019418 0.0 103120
04:00−26ssw119813 0.0 103019
07:00−27ssw129719 0.0 102919
10:00−23sw238826 0.0 1027263
13:00−18sw368598 0.0 1024469
16:00−16sw378499 0.0 1020463
19:00−19sw229599 0.0 101933
22:00−18w2393100 0.0 101785